Location: Unspecified
(0.0000°N, 0.0000°E)
Time: 19:06:18
(UTC+01:00)

NOAA 12 - Visible Passes

Search period start: 27 February 2017 00:00
Search period end: 09 March 2017 00:00
Orbit: 796 x 815 km, 98.6° (Epoch: 26 February)

Date Brightness Start Highest point End Pass type
(mag) Time Alt. Az. Time Alt. Az. Time Alt. Az.
27 Feb 6.0 20:44:18 10° SSW 20:48:54 30° WSW 20:53:30 10° NW visible
28 Feb 4.6 20:18:47 10° S 20:23:59 61° WSW 20:29:13 10° NNW visible
01 Mar 4.1 19:53:49 10° SSE 19:59:05 68° ENE 20:04:21 10° N visible
02 Mar 4.7 19:29:27 10° SE 19:34:12 34° ENE 19:38:55 10° NNE visible
02 Mar 7.0 21:10:41 10° SW 21:13:41 15° WSW 21:16:43 10° WNW visible
03 Mar 6.0 20:44:12 10° SSW 20:48:49 30° WSW 20:53:25 10° NW visible
04 Mar 4.6 20:18:40 10° S 20:23:54 61° WSW 20:29:08 10° NNW visible
05 Mar 4.1 19:53:43 10° SSE 19:58:59 68° ENE 20:04:15 10° N visible
06 Mar 4.7 19:29:20 10° SE 19:34:05 34° ENE 19:38:50 10° NNE visible
06 Mar 7.0 21:10:34 10° SW 21:13:35 15° WSW 21:16:37 10° WNW visible
07 Mar 6.0 20:44:05 10° SSW 20:48:42 30° WSW 20:53:19 10° NW visible
08 Mar 4.6 20:18:34 10° S 20:23:48 61° WSW 20:29:02 10° NNW visible
